Change the Weather History Date:

Saturday, October 26, 2013

  Actual Average Record
Temperature  
Mean Temperature 46 °F -  
Max Temperature 59 °F 58 °F 67 °F (1971)
Min Temperature 34 °F 46 °F 32 °F (1972)
Degree Days  
Heating Degree Days 20    
Moisture  
Dew Point 36 °F    
Average Humidity 57    
Maximum Humidity 82    
Minimum Humidity 45    
Precipitation  
Precipitation 0.00 in - - ()
Sea Level Pressure  
Sea Level Pressure 30.09 in    
Wind  
Wind Speed 14 mph (WSW)    
Max Wind Speed 30 mph    
Max Gust Speed 41 mph    
Visibility 10 miles    
Events      
Averages and records for this station are not official NWS values.
T = Trace of Precipitation, MM = Missing Value Source: NWS Daily Summary

Daily Weather History Graph

Daily Weather History Graph

Search for Another Location

Airport or City:

Trip Planner

Search our weather history database for the weather conditions in past years. The results will help you decide how hot, cold, wet, or windy it might be!

Date:

Astronomy

Oct. 26, 2013 Rise Set
Actual Time 7:04 AM EDT 5:43 PM EDT
Civil Twilight 6:36 AM EDT 6:11 PM EDT
Nautical Twilight 6:04 AM EDT 6:43 PM EDT
Astronomical Twilight 5:31 AM EDT 7:15 PM EDT
Moon 11:56 PM EDT (10/26) 1:19 PM EDT (10/26)
Length of Visible Light 11h 35m
Length of Day
10h 38m
Waning Gibbous, 53% of the Moon is Illuminated
Oct 26
Waning Gibbous
Oct 26
Last Quarter
Nov 3
New
Nov 10
First Quarter
Nov 17
Full

Hourly Weather History & Observations

Time (EDT) Temp. Windchill Dew Point Humidity Pressure Visibility Wind Dir Wind Speed Gust Speed Precip Events Conditions
12:53 AM 46.0 °F 41.0 °F 27.0 °F 47% 30.17 in 10.0 mi NW 10.4 mph - N/A   Clear
1:53 AM 44.1 °F 39.5 °F 27.0 °F 51% 30.17 in 10.0 mi NW 8.1 mph - N/A   Clear
2:53 AM 42.1 °F 37.7 °F 28.0 °F 58% 30.17 in 10.0 mi West 6.9 mph - N/A   Clear
3:53 AM 41.0 °F 37.1 °F 28.9 °F 62% 30.17 in 10.0 mi WNW 5.8 mph - N/A   Clear
4:53 AM 39.0 °F 34.8 °F 30.0 °F 70% 30.17 in 10.0 mi West 5.8 mph - N/A   Clear
5:53 AM 42.1 °F 38.4 °F 32.0 °F 67% 30.18 in 10.0 mi WNW 5.8 mph - N/A   Clear
6:53 AM 34.0 °F - 28.9 °F 82% 30.18 in 10.0 mi Calm Calm - N/A   Clear
7:53 AM 39.9 °F 37.8 °F 32.0 °F 73% 30.18 in 10.0 mi West 3.5 mph - N/A   Clear
8:53 AM 53.1 °F - 36.0 °F 52% 30.18 in 10.0 mi SW 15.0 mph 21.9 mph N/A   Scattered Clouds
9:53 AM 53.1 °F - 39.0 °F 59% 30.17 in 10.0 mi West 10.4 mph 16.1 mph N/A   Mostly Cloudy
10:53 AM 55.0 °F - 35.1 °F 47% 30.17 in 10.0 mi WSW 21.9 mph 25.3 mph N/A   Partly Cloudy
11:53 AM 55.9 °F - 35.1 °F 45% 30.14 in 10.0 mi SW 17.3 mph 25.3 mph N/A   Mostly Cloudy
12:53 PM 55.9 °F - 37.9 °F 51% 30.11 in 10.0 mi SW 24.2 mph 29.9 mph N/A   Overcast
1:53 PM 55.9 °F - 37.0 °F 49% 30.09 in 10.0 mi WSW 26.5 mph 33.4 mph N/A   Mostly Cloudy
2:53 PM 57.0 °F - 37.0 °F 47% 30.07 in 10.0 mi SW 21.9 mph 33.4 mph N/A   Scattered Clouds
3:53 PM 55.0 °F - 37.0 °F 51% 30.06 in 10.0 mi WSW 28.8 mph 36.8 mph N/A   Mostly Cloudy
4:53 PM 55.0 °F - 37.0 °F 51% 30.04 in 10.0 mi WSW 26.5 mph 36.8 mph N/A   Scattered Clouds
5:53 PM 54.0 °F - 37.9 °F 55% 30.02 in 10.0 mi SW 26.5 mph - N/A   Clear
6:53 PM 55.0 °F - 39.9 °F 57% 30.00 in 10.0 mi SW 28.8 mph 39.1 mph N/A   Clear
7:53 PM 55.9 °F - 39.9 °F 55% 29.99 in 10.0 mi SW 28.8 mph 39.1 mph N/A   Partly Cloudy
8:53 PM 55.9 °F - 41.0 °F 57% 29.98 in 10.0 mi SW 27.6 mph 34.5 mph N/A   Partly Cloudy
9:53 PM 57.0 °F - 42.1 °F 57% 29.96 in 10.0 mi SW 20.7 mph 36.8 mph N/A   Partly Cloudy
10:53 PM 57.9 °F - 44.1 °F 60% 29.94 in 10.0 mi SW 29.9 mph 41.4 mph N/A   Clear
11:53 PM 57.0 °F - 48.9 °F 74% 29.92 in 10.0 mi SW 23.0 mph 29.9 mph 0.00 in   Overcast